Showing default

YAM-5, 55076

Orbit data source: Space-Track

YAM-5, 55076 is a payload satellite owned by Loft Orbital (US) in SSO that was launched on Tue, 03 Jan 2023 UTC via an FALCON 9 launch vehicle from the Air Force Eastern Test Range (AFETR). Payload-class satellites include a variety of spacecraft equipped with specific instruments for various scientific and technological missions. These include communications satellites like Starlink; space stations such as the ISS; scientific satellites like the Hubble; Earth observation satellites from companies like Planet Labs, Umbra, and HawkEye 360; GPS; miniature CubeSats for education and research; and military/defense satellites.

Loading next visibility...
Identifier
55076, 2023-001BV
Orbit
SSO
Country
Flag of USUS
Related business
Manufacturer
LeoStella
Mission
Operational Commercial Technology
Bus & Motor
YAM, Unknown motor
Mass
87 kg wet, 87 kg dry
Launch date (UTC)
2023-01-03 (3 years ago)
Launch vehicle
FALCON 9
Launch site
Air Force Eastern Test Range (AFETR)
Object type
Payload
Rocket body
Debris
Shape & HBR
Box, 1.0 m
Radar Cross Section
1.500 m², Medium (>0.1 m² and < 1m²)

Expand to show TLE details & history
Last TLE update: 12 hours ago

TLE from 12 hours ago
0 YAM-5
1 55076U 23001BV  26023.62315778  .00016347  00000-0  48114-3 0  9993
2 55076  97.3413  87.1162 0007993 267.3316  92.7013 15.35113181169909
Epoch: 2026-01-23T14:57Z
TLE epoch observation values (Epoch: 2026-01-23T14:57:20.832Z)
Latitude
0.00003°
Longitude
99.82008°
Altitude
463.959 km
Speed
7.634 km/s
True Right ascension
05h 48m 27s
True Declination
0° 00' 00"
Sunlit
Object was in full shadow at epoch
Visualization orbit readout
Latitude
Unknown
Longitude
Unknown
Altitude
Unknown
Speed
Unknown
Apparent Right ascension
Unknown
Apparent Declination
Unknown
Sunlit
N/A
Visualization observer readout
Local Sidereal Time
04:13:29
Azimuth
Unknown
Elevation
Unknown
Doppler factor
Unknown
Orbital elements
Apogee altitude
462.991 km
Perigee altitude
452.064 km
Semi-major axis
6,835.664 km
Eccentricity
0.0008
Inclination
97.3413°
RAAN
87.1162°
Arg. of periapsis
267.3316°
True anomaly
92.79279°
Mean anomaly
92.7013°
Eccentric anomaly
92.74704°
Mean motion
3.84036 °/min
Orbital period
93.74 mins
BSTAR
0.00048114
Loading maneuver chart data...
Computing Atmospheric mass density...
Loading historical data...
Loading historical data...
Loading historical data...
Loading historical data...
Loading historical data...
Loading historical data...
Loading historical data...

Documentation

Showing up to 5 results
|